Regional Weather Roundup
Issued by NWS

Home | Current Version | Previous Version | Graphics & Text | Print | Product List | Glossary Off
Versions: 1 2 3 4 5 6 7 8 9 10 11 12 13 14 15 16 17 18 19 20 21 22 23 24 25 26 27 28 29 30 31 32 33 34 35 36 37 38 39 40 41 42 43 44 45 46 47 48 49 50

000
ASUS43 KTOP 170908
RWRKS

WEATHER ROUNDUP FOR KANSAS
NATIONAL WEATHER SERVICE GOODLAND KS
300 AM CST WED JAN 17 2018

NOTE:  "FAIR" INDICATES FEW OR NO CLOUDS BELOW 12,000 FEET WITH NO
SIGNIFICANT WEATHER AND/OR OBSTRUCTIONS TO VISIBILITY.

KSZ001>006-013>018-027>032-041>047-171000-
NORTHWEST KANSAS

CITY           SKY/WX    TMP DP  RH WIND       PRES   REMARKS
GOODLAND       CLEAR     11   0  61 S12       30.32S WCI  -3
HAYS           CLOUDY     0  -4  83 SW5       30.54F
HILL CITY      CLOUDY     4  -2  76 SW5       30.49F
RUSSELL        CLEAR      4   0  83 S9        30.55S
$$

KSZ061>065-074>080-084>089-171000-
SOUTHWEST KANSAS

CITY           SKY/WX    TMP DP  RH WIND       PRES   REMARKS
DODGE CITY     CLOUDY     3  -6  66 S9        30.51S
ELKHART        CLEAR     10   2  69 S12       30.37S WCI  -4
GARDEN CITY    CLOUDY     4  -6  63 S10       30.45F WCI -11
GREAT BEND     CLOUDY     1  -2  87 S7        30.58S
LIBERAL        CLOUDY     3  -7  63 S8        30.48F
PRATT          CLOUDY     1  -4  77 S8        30.59S
$$

KSZ066>073-081>083-090>101-171000-
SOUTHEAST KANSAS

CITY           SKY/WX    TMP DP  RH WIND       PRES   REMARKS
CHANUTE        CLOUDY     1  -3  83 S3        30.69F
COFFEYVILLE    PTCLDY    -1  -5  82 CALM      30.73S
HUTCHINSON     CLOUDY     0  -3  87 CALM      30.63R
MEDICINE LODGE   N/A      6   0  76 SE3       30.64S
NEWTON         CLOUDY     3   0  87 SW7       30.64S
PARSONS        CLOUDY    -3  -7  82 CALM      30.72S
WICHITA INTL   CLOUDY     4   0  83 SW6       30.66S
WICHITA JABRA  CLOUDY     4   2  91 S6        30.65S
WICHITA MCCONL CLOUDY     4  -1  82 SW6       30.66S
WINFIELD       CLOUDY     4   1  88 CALM      30.70S
$$

KSZ007>012-019>026-033>040-048>060-102>105-171000-
NORTHEAST KANSAS

CITY           SKY/WX    TMP DP  RH WIND       PRES   REMARKS
CONCORDIA      CLOUDY     5   0  79 S7        30.59S
EMPORIA        CLOUDY     2  -2  83 SW6       30.66S
LAWRENCE       CLOUDY    -5  -8  87 CALM      30.69S
MANHATTAN      CLOUDY    -2  -7  79 CALM      30.67R
MARYSVILLE     CLOUDY    -2  -6  84 S5        30.62S
OLATHE IND     CLOUDY    -2  -5  87 S3        30.67S
OLATHE EXE     CLOUDY    -1  -4  87 SW3       30.66S
SALINA         CLEAR      1  -2  87 SE6       30.64S
TOPEKA BILLARD CLOUDY    -2  -6  83 CALM      30.68S
TOPEKA FORBES  CLEAR     -3  -8  79 S3        30.66R
$$




USA.gov is the U.S. government's official web portal to all federal, state and local government web resources and services.